Zurück zum Katalog

COSMOS 1157

AktivMilitärLEO
NORAD 11692·PAYLOAD·🇷🇺 Russia

Gestartet Feb 11, 1980 von Plesetsk Cosmodrome

Loading…

Nächste Überflüge (nächste 24 Stunden)

TLE

AktuellSource: Space-Track

Epoche: Sep 14, 2026, 07:12 UTC

1 11692U 80012B   26257.30030088 -.00000004  00000-0  74941-4 0  9998
2 11692  74.0250   9.7165 0039986 263.8682 123.9074 12.54570061133629

Verfolge COSMOS 1157 in Echtzeit mit AllMySat

Download on the App Store